Time,TemperatureF,DewpointF,PressureIn,WindDirection,WindDirectionDegrees,WindSpeedMPH,WindSpeedGustMPH,Humidity,HourlyPrecipIn,Conditions,Clouds,dailyrainin,SoftwareType,DateUTC
2013-09-09 00:00:00,75.6,55.1,29.64,WSW,257,0.0,3.0,49,0.00,CLR,,0.00,WeatherDisplay:10.37,2013-09-09 07:00:00,
2013-09-09 00:10:00,75.4,54.3,29.62,South,188,2.0,6.0,48,0.00,CLR,,0.00,WeatherDisplay:10.37,2013-09-09 07:10:00,
2013-09-09 00:20:00,75.4,53.8,29.62,SSE,167,3.0,5.0,47,0.00,CLR,,0.00,WeatherDisplay:10.37,2013-09-09 07:20:00,
2013-09-09 00:25:00,75.4,53.8,29.62,SSE,157,1.0,5.0,47,0.00,CLR,,0.00,WeatherDisplay:10.37,2013-09-09 07:25:00,
2013-09-09 00:30:00,75.4,53.8,29.61,SSE,155,1.0,5.0,47,0.00,CLR,,0.00,WeatherDisplay:10.37,2013-09-09 07:30:00,
2013-09-09 00:40:00,75.6,53.4,29.61,SSE,166,3.0,7.0,46,0.00,CLR,,0.00,WeatherDisplay:10.37,2013-09-09 07:40:00,
2013-09-09 00:50:00,76.1,52.6,29.59,South,178,2.0,9.0,44,0.00,CLR,,0.00,WeatherDisplay:10.37,2013-09-09 07:50:00,
2013-09-09 00:55:00,76.5,52.3,29.59,South,187,3.0,6.0,43,0.00,CLR,,0.00,WeatherDisplay:10.37,2013-09-09 07:55:00,
2013-09-09 01:00:00,76.7,51.8,29.59,South,191,1.0,5.0,42,0.00,CLR,,0.00,WeatherDisplay:10.37,2013-09-09 08:00:00,
2013-09-09 01:10:00,76.8,51.3,29.59,South,189,2.0,7.0,41,0.00,CLR,,0.00,WeatherDisplay:10.37,2013-09-09 08:10:00,
2013-09-09 01:15:00,76.8,52.0,29.60,SSW,211,3.0,6.0,42,0.00,CLR,,0.00,WeatherDisplay:10.37,2013-09-09 08:15:00,
2013-09-09 01:20:00,76.5,52.3,29.59,WSW,242,0.0,4.0,43,0.00,CLR,,0.00,WeatherDisplay:10.37,2013-09-09 08:20:00,
2013-09-09 01:25:00,76.2,52.7,29.59,WSW,257,3.0,7.0,44,0.00,CLR,,0.00,WeatherDisplay:10.37,2013-09-09 08:25:00,
2013-09-09 01:30:00,76.0,52.5,29.59,West,261,1.0,3.0,44,0.00,CLR,,0.00,WeatherDisplay:10.37,2013-09-09 08:30:00,
2013-09-09 01:40:00,75.4,53.2,29.60,West,261,0.0,2.0,46,0.00,CLR,,0.00,WeatherDisplay:10.37,2013-09-09 08:40:00,
2013-09-09 01:50:00,74.7,53.7,29.60,West,261,0.0,0.0,48,0.00,CLR,,0.00,WeatherDisplay:10.37,2013-09-09 08:50:00,
2013-09-09 01:55:00,74.4,53.4,29.60,West,261,0.0,0.0,48,0.00,CLR,,0.00,WeatherDisplay:10.37,2013-09-09 08:55:00,
2013-09-09 02:00:00,74.0,53.6,29.60,West,261,0.0,0.0,49,0.00,CLR,,0.00,WeatherDisplay:10.37,2013-09-09 09:00:00,
2013-09-09 02:10:00,73.0,53.3,29.60,West,261,0.0,0.0,50,0.00,CLR,,0.00,WeatherDisplay:10.37,2013-09-09 09:10:00,
2013-09-09 02:15:00,72.7,53.5,29.60,West,261,0.0,0.0,51,0.00,CLR,,0.00,WeatherDisplay:10.37,2013-09-09 09:15:00,
2013-09-09 02:20:00,72.5,53.9,29.60,West,261,0.0,0.0,52,0.00,CLR,,0.00,WeatherDisplay:10.37,2013-09-09 09:20:00,
2013-09-09 02:30:00,71.8,53.7,29.59,West,261,0.0,0.0,53,0.00,CLR,,0.00,WeatherDisplay:10.37,2013-09-09 09:30:00,
2013-09-09 02:40:00,71.6,54.1,29.59,West,261,0.0,0.0,54,0.00,CLR,,0.00,WeatherDisplay:10.37,2013-09-09 09:40:00,
2013-09-09 02:45:00,71.6,54.1,29.59,West,261,0.0,0.0,54,0.00,CLR,,0.00,WeatherDisplay:10.37,2013-09-09 09:45:00,
2013-09-09 02:50:00,71.5,54.0,29.59,West,261,0.0,0.0,54,0.00,CLR,,0.00,WeatherDisplay:10.37,2013-09-09 09:50:00,
2013-09-09 02:55:00,71.5,54.0,29.59,West,261,0.0,0.0,54,0.00,CLR,,0.00,WeatherDisplay:10.37,2013-09-09 09:55:00,
2013-09-09 03:00:00,71.5,54.0,29.59,West,261,0.0,0.0,54,0.00,CLR,,0.00,WeatherDisplay:10.37,2013-09-09 10:00:00,
2013-09-09 03:10:00,71.8,54.3,29.59,West,261,0.0,0.0,54,0.00,CLR,,0.00,WeatherDisplay:10.37,2013-09-09 10:10:00,
2013-09-09 03:20:00,72.1,54.5,29.59,West,261,0.0,0.0,54,0.00,CLR,,0.00,WeatherDisplay:10.37,2013-09-09 10:20:00,
2013-09-09 03:25:00,72.0,54.4,29.58,West,261,0.0,1.0,54,0.00,CLR,,0.00,WeatherDisplay:10.37,2013-09-09 10:25:00,
2013-09-09 03:30:00,71.8,54.3,29.58,West,261,0.0,0.0,54,0.00,CLR,,0.00,WeatherDisplay:10.37,2013-09-09 10:30:00,
2013-09-09 03:40:00,71.6,54.1,29.58,West,261,2.0,3.0,54,0.00,CLR,,0.00,WeatherDisplay:10.37,2013-09-09 10:40:00,
2013-09-09 03:50:00,71.5,55.0,29.59,West,261,0.0,4.0,56,0.00,CLR,,0.00,WeatherDisplay:10.37,2013-09-09 10:50:00,
2013-09-09 03:55:00,71.5,55.5,29.59,West,261,0.0,4.0,57,0.00,CLR,,0.00,WeatherDisplay:10.37,2013-09-09 10:55:00,
2013-09-09 04:00:00,71.5,55.5,29.59,West,261,1.0,4.0,57,0.00,CLR,,0.00,WeatherDisplay:10.37,2013-09-09 11:00:00,
2013-09-09 04:10:00,71.5,55.5,29.59,West,261,0.0,2.0,57,0.00,CLR,,0.00,WeatherDisplay:10.37,2013-09-09 11:10:00,
2013-09-09 04:15:00,71.4,54.8,29.59,West,261,0.0,0.0,56,0.00,CLR,,0.00,WeatherDisplay:10.37,2013-09-09 11:15:00,
2013-09-09 04:20:00,71.1,55.1,29.59,West,261,2.0,3.0,57,0.00,CLR,,0.00,WeatherDisplay:10.37,2013-09-09 11:20:00,
2013-09-09 04:30:00,70.6,54.2,29.59,West,261,1.0,2.0,56,0.00,CLR,,0.00,WeatherDisplay:10.37,2013-09-09 11:30:00,
2013-09-09 04:40:00,70.3,53.9,29.59,West,261,0.0,0.0,56,0.00,CLR,,0.00,WeatherDisplay:10.37,2013-09-09 11:40:00,
2013-09-09 04:45:00,70.1,54.2,29.60,West,261,0.0,0.0,57,0.00,CLR,,0.00,WeatherDisplay:10.37,2013-09-09 11:45:00,
2013-09-09 04:50:00,69.9,54.0,29.60,West,261,0.0,0.0,57,0.00,CLR,,0.00,WeatherDisplay:10.37,2013-09-09 11:50:00,
2013-09-09 05:00:00,69.7,54.3,29.60,West,261,0.0,0.0,58,0.00,CLR,,0.00,WeatherDisplay:10.37,2013-09-09 12:00:00,
2013-09-09 05:10:00,69.4,53.5,29.60,West,261,0.0,0.0,57,0.00,CLR,,0.00,WeatherDisplay:10.37,2013-09-09 12:10:00,
2013-09-09 05:15:00,69.2,53.8,29.61,West,261,0.0,0.0,58,0.00,CLR,,0.00,WeatherDisplay:10.37,2013-09-09 12:15:00,
2013-09-09 05:20:00,68.8,53.0,29.61,West,261,0.0,0.0,57,0.00,CLR,,0.00,WeatherDisplay:10.37,2013-09-09 12:20:00,
2013-09-09 05:25:00,68.8,53.4,29.61,West,261,0.0,0.0,58,0.00,CLR,,0.00,WeatherDisplay:10.37,2013-09-09 12:25:00,
2013-09-09 05:30:00,68.8,52.9,29.62,West,261,0.0,0.0,57,0.00,CLR,,0.00,WeatherDisplay:10.37,2013-09-09 12:30:00,
2013-09-09 05:40:00,68.8,52.9,29.62,West,261,0.0,0.0,57,0.00,CLR,,0.00,WeatherDisplay:10.37,2013-09-09 12:40:00,
2013-09-09 05:45:00,68.9,53.0,29.62,West,261,0.0,0.0,57,0.00,CLR,,0.00,WeatherDisplay:10.37,2013-09-09 12:45:00,
2013-09-09 05:50:00,68.9,53.0,29.62,West,261,0.0,0.0,57,0.00,CLR,,0.00,WeatherDisplay:10.37,2013-09-09 12:50:00,
2013-09-09 06:00:00,69.3,53.4,29.62,West,261,0.0,0.0,57,0.00,CLR,,0.00,WeatherDisplay:10.37,2013-09-09 13:00:00,
2013-09-09 06:10:00,69.6,53.2,29.62,West,261,0.0,0.0,56,0.00,CLR,,0.00,WeatherDisplay:10.37,2013-09-09 13:10:00,
2013-09-09 06:15:00,69.8,53.4,29.62,West,261,2.0,4.0,56,0.00,CLR,,0.00,WeatherDisplay:10.37,2013-09-09 13:15:00,
2013-09-09 06:20:00,70.1,53.2,29.62,West,261,2.0,4.0,55,0.00,CLR,,0.00,WeatherDisplay:10.37,2013-09-09 13:20:00,
2013-09-09 06:25:00,69.8,54.4,29.63,West,261,1.0,3.0,58,0.00,CLR,,0.00,WeatherDisplay:10.37,2013-09-09 13:25:00,
2013-09-09 06:30:00,69.3,54.4,29.64,West,261,0.0,2.0,59,0.00,CLR,,0.00,WeatherDisplay:10.37,2013-09-09 13:30:00,
2013-09-09 06:40:00,68.4,54.9,29.65,West,261,2.0,3.0,62,0.00,CLR,,0.00,WeatherDisplay:10.37,2013-09-09 13:40:00,
2013-09-09 06:50:00,68.1,54.6,29.65,West,261,1.0,3.0,62,0.00,CLR,,0.00,WeatherDisplay:10.37,2013-09-09 13:50:00,
2013-09-09 07:00:00,68.3,54.8,29.65,West,261,0.0,1.0,62,0.00,CLR,,0.00,WeatherDisplay:10.37,2013-09-09 14:00:00,
2013-09-09 07:10:00,68.8,55.2,29.65,West,261,0.0,3.0,62,0.00,CLR,,0.00,WeatherDisplay:10.37,2013-09-09 14:10:00,
2013-09-09 07:20:00,69.4,54.9,29.65,West,261,0.0,3.0,60,0.00,CLR,,0.00,WeatherDisplay:10.37,2013-09-09 14:20:00,
2013-09-09 07:25:00,69.8,55.3,29.66,West,261,0.0,0.0,60,0.00,CLR,,0.00,WeatherDisplay:10.37,2013-09-09 14:25:00,
2013-09-09 07:30:00,70.3,54.8,29.66,West,261,0.0,0.0,58,0.00,CLR,,0.00,WeatherDisplay:10.37,2013-09-09 14:30:00,
2013-09-09 07:40:00,70.9,54.4,29.66,West,261,0.0,0.0,56,0.00,CLR,,0.00,WeatherDisplay:10.37,2013-09-09 14:40:00,
2013-09-09 07:50:00,71.8,54.8,29.66,West,261,0.0,0.0,55,0.00,CLR,,0.00,WeatherDisplay:10.37,2013-09-09 14:50:00,
2013-09-09 07:55:00,72.3,54.8,29.66,West,261,0.0,0.0,54,0.00,CLR,,0.00,WeatherDisplay:10.37,2013-09-09 14:55:00,
2013-09-09 08:00:00,72.9,54.7,29.66,West,261,0.0,0.0,53,0.00,CLR,,0.00,WeatherDisplay:10.37,2013-09-09 15:00:00,
2013-09-09 08:10:00,74.0,54.7,29.66,West,261,0.0,0.0,51,0.00,CLR,,0.00,WeatherDisplay:10.37,2013-09-09 15:10:00,
2013-09-09 08:15:00,74.5,54.7,29.66,West,261,0.0,0.0,50,0.00,CLR,,0.00,WeatherDisplay:10.37,2013-09-09 15:15:00,
2013-09-09 08:20:00,74.9,54.4,29.66,West,261,0.0,0.0,49,0.00,CLR,,0.00,WeatherDisplay:10.37,2013-09-09 15:20:00,
2013-09-09 08:30:00,75.8,54.1,29.65,West,261,0.0,0.0,47,0.00,CLR,,0.00,WeatherDisplay:10.37,2013-09-09 15:30:00,
2013-09-09 08:40:00,76.7,53.8,29.65,West,261,0.0,0.0,45,0.00,CLR,,0.00,WeatherDisplay:10.37,2013-09-09 15:40:00,
2013-09-09 08:45:00,77.2,53.6,29.65,West,261,0.0,0.0,44,0.00,CLR,,0.00,WeatherDisplay:10.37,2013-09-09 15:45:00,
2013-09-09 08:50:00,77.7,53.5,29.65,West,261,0.0,2.0,43,0.00,CLR,,0.00,WeatherDisplay:10.37,2013-09-09 15:50:00,
2013-09-09 09:00:00,78.2,53.2,29.65,West,261,2.0,4.0,42,0.00,CLR,,0.00,WeatherDisplay:10.37,2013-09-09 16:00:00,
2013-09-09 09:10:00,78.1,52.5,29.65,West,261,0.0,1.0,41,0.00,CLR,,0.00,WeatherDisplay:10.37,2013-09-09 16:10:00,
2013-09-09 09:15:00,78.6,53.0,29.64,West,261,0.0,1.0,41,0.00,CLR,,0.00,WeatherDisplay:10.37,2013-09-09 16:15:00,
2013-09-09 09:20:00,79.8,53.4,29.64,West,261,0.0,0.0,40,0.00,CLR,,0.00,WeatherDisplay:10.37,2013-09-09 16:20:00,
2013-09-09 09:25:00,80.3,52.4,29.65,West,261,1.0,2.0,38,0.00,CLR,,0.00,WeatherDisplay:10.37,2013-09-09 16:25:00,
2013-09-09 09:30:00,80.3,52.4,29.66,West,261,1.0,3.0,38,0.00,CLR,,0.00,WeatherDisplay:10.37,2013-09-09 16:30:00,
2013-09-09 09:40:00,80.7,52.0,29.65,West,261,1.0,3.0,37,0.00,CLR,,0.00,WeatherDisplay:10.37,2013-09-09 16:40:00,
2013-09-09 09:45:00,81.1,52.4,29.65,West,261,0.0,2.0,37,0.00,CLR,,0.00,WeatherDisplay:10.37,2013-09-09 16:45:00,
2013-09-09 09:50:00,81.8,52.2,29.65,West,261,1.0,4.0,36,0.00,CLR,,0.00,WeatherDisplay:10.37,2013-09-09 16:50:00,
2013-09-09 09:55:00,81.4,52.6,29.65,West,261,1.0,4.0,37,0.00,CLR,,0.00,WeatherDisplay:10.37,2013-09-09 16:55:00,
2013-09-09 10:00:00,82.2,51.8,29.65,West,261,0.0,3.0,35,0.00,CLR,,0.00,WeatherDisplay:10.37,2013-09-09 17:00:00,
2013-09-09 10:10:00,82.8,51.6,29.65,West,261,1.0,4.0,34,0.00,CLR,,0.00,WeatherDisplay:10.37,2013-09-09 17:10:00,
2013-09-09 10:20:00,83.5,50.5,29.65,West,261,0.0,2.0,32,0.00,CLR,,0.00,WeatherDisplay:10.37,2013-09-09 17:20:00,
2013-09-09 10:25:00,84.1,50.2,29.65,West,261,0.0,2.0,31,0.00,CLR,,0.00,WeatherDisplay:10.37,2013-09-09 17:25:00,
2013-09-09 10:30:00,84.8,48.1,29.64,West,261,0.0,3.0,28,0.00,CLR,,0.00,WeatherDisplay:10.37,2013-09-09 17:30:00,
2013-09-09 10:40:00,86.3,49.4,29.63,West,261,2.0,4.0,28,0.00,CLR,,0.00,WeatherDisplay:10.37,2013-09-09 17:40:00,
2013-09-09 10:50:00,86.5,49.5,29.63,West,261,2.0,6.0,28,0.00,CLR,,0.00,WeatherDisplay:10.37,2013-09-09 17:50:00,
2013-09-09 10:55:00,86.1,49.2,29.63,South,175,2.0,6.0,28,0.00,CLR,,0.00,WeatherDisplay:10.37,2013-09-09 17:55:00,
2013-09-09 11:00:00,86.1,48.2,29.62,East,89,3.0,6.0,27,0.00,CLR,,0.00,WeatherDisplay:10.37,2013-09-09 18:00:00,
2013-09-09 11:10:00,86.3,47.3,29.62,East,89,2.0,5.0,26,0.00,CLR,,0.00,WeatherDisplay:10.37,2013-09-09 18:10:00,
2013-09-09 11:15:00,87.1,48.0,29.62,East,91,1.0,4.0,26,0.00,CLR,,0.00,WeatherDisplay:10.37,2013-09-09 18:15:00,
2013-09-09 11:20:00,87.8,48.6,29.62,East,91,2.0,5.0,26,0.00,CLR,,0.00,WeatherDisplay:10.37,2013-09-09 18:20:00,
2013-09-09 11:30:00,88.1,46.8,29.62,East,87,2.0,6.0,24,0.00,CLR,,0.00,WeatherDisplay:10.37,2013-09-09 18:30:00,
2013-09-09 11:40:00,88.8,48.5,29.60,East,93,2.0,7.0,25,0.00,CLR,,0.00,WeatherDisplay:10.37,2013-09-09 18:40:00,
2013-09-09 11:45:00,89.3,47.8,29.60,ESE,114,5.0,9.0,24,0.00,CLR,,0.00,WeatherDisplay:10.37,2013-09-09 18:45:00,
2013-09-09 11:50:00,88.8,48.5,29.60,ESE,102,5.0,8.0,25,0.00,CLR,,0.00,WeatherDisplay:10.37,2013-09-09 18:50:00,
2013-09-09 11:55:00,88.6,48.3,29.60,ENE,76,2.0,5.0,25,0.00,CLR,,0.00,WeatherDisplay:10.37,2013-09-09 18:55:00,
2013-09-09 12:00:00,88.4,48.1,29.60,East,82,6.0,10.0,25,0.00,CLR,,0.00,WeatherDisplay:10.37,2013-09-09 19:00:00,
2013-09-09 12:10:00,88.2,49.0,29.60,ENE,77,2.0,7.0,26,0.00,CLR,,0.00,WeatherDisplay:10.37,2013-09-09 19:10:00,
2013-09-09 12:20:00,89.7,48.1,29.59,ESE,105,1.0,5.0,24,0.00,CLR,,0.00,WeatherDisplay:10.37,2013-09-09 19:20:00,
2013-09-09 12:25:00,90.0,48.4,29.58,East,97,2.0,6.0,24,0.00,CLR,,0.00,WeatherDisplay:10.37,2013-09-09 19:25:00,
2013-09-09 12:30:00,89.9,48.3,29.58,East,96,5.0,7.0,24,0.00,CLR,,0.00,WeatherDisplay:10.37,2013-09-09 19:30:00,
2013-09-09 12:40:00,90.1,48.4,29.58,East,98,1.0,3.0,24,0.00,CLR,,0.00,WeatherDisplay:10.37,2013-09-09 19:40:00,
2013-09-09 12:45:00,91.1,48.1,29.58,East,98,2.0,4.0,23,0.00,CLR,,0.00,WeatherDisplay:10.37,2013-09-09 19:45:00,
2013-09-09 12:50:00,91.4,47.2,29.57,East,98,1.0,3.0,22,0.00,CLR,,0.00,WeatherDisplay:10.37,2013-09-09 19:50:00,
2013-09-09 13:00:00,92.1,47.8,29.56,ENE,63,0.0,5.0,22,0.00,CLR,,0.00,WeatherDisplay:10.37,2013-09-09 20:00:00,
2013-09-09 13:10:00,92.3,48.0,29.56,ENE,67,1.0,7.0,22,0.00,CLR,,0.00,WeatherDisplay:10.37,2013-09-09 20:10:00,
2013-09-09 13:20:00,92.9,48.5,29.55,ENE,70,2.0,6.0,22,0.00,CLR,,0.00,WeatherDisplay:10.37,2013-09-09 20:20:00,
2013-09-09 13:25:00,93.0,48.5,29.55,ENE,72,3.0,9.0,22,0.00,CLR,,0.00,WeatherDisplay:10.37,2013-09-09 20:25:00,
2013-09-09 13:30:00,93.0,48.5,29.56,East,80,3.0,7.0,22,0.00,CLR,,0.00,WeatherDisplay:10.37,2013-09-09 20:30:00,
2013-09-09 13:40:00,93.2,48.7,29.55,East,96,2.0,7.0,22,0.00,CLR,,0.00,WeatherDisplay:10.37,2013-09-09 20:40:00,
2013-09-09 13:45:00,93.5,47.7,29.55,East,82,2.0,6.0,21,0.00,CLR,,0.00,WeatherDisplay:10.37,2013-09-09 20:45:00,
2013-09-09 13:50:00,93.8,48.0,29.54,East,82,3.0,9.0,21,0.00,CLR,,0.00,WeatherDisplay:10.37,2013-09-09 20:50:00,
2013-09-09 13:55:00,94.5,47.2,29.54,ESE,102,1.0,7.0,20,0.00,CLR,,0.00,WeatherDisplay:10.37,2013-09-09 20:55:00,
2013-09-09 14:00:00,95.1,47.7,29.53,ESE,115,3.0,6.0,20,0.00,CLR,,0.00,WeatherDisplay:10.37,2013-09-09 21:00:00,
2013-09-09 14:10:00,95.4,48.0,29.53,East,99,2.0,5.0,20,0.00,CLR,,0.00,WeatherDisplay:10.37,2013-09-09 21:10:00,
2013-09-09 14:15:00,95.4,46.6,29.53,ESE,112,5.0,9.0,19,0.00,CLR,,0.00,WeatherDisplay:10.37,2013-09-09 21:15:00,
2013-09-09 14:20:00,95.1,44.9,29.52,East,95,3.0,9.0,18,0.00,CLR,,0.00,WeatherDisplay:10.37,2013-09-09 21:20:00,
2013-09-09 14:25:00,94.5,43.0,29.52,East,83,5.0,8.0,17,0.00,CLR,,0.00,WeatherDisplay:10.37,2013-09-09 21:25:00,
2013-09-09 14:30:00,94.5,45.9,29.52,ENE,78,6.0,10.0,19,0.00,CLR,,0.00,WeatherDisplay:10.37,2013-09-09 21:30:00,
2013-09-09 14:40:00,94.3,45.7,29.52,ENE,77,1.0,6.0,19,0.00,CLR,,0.00,WeatherDisplay:10.37,2013-09-09 21:40:00,
2013-09-09 14:45:00,94.7,44.6,29.51,East,81,1.0,6.0,18,0.00,CLR,,0.00,WeatherDisplay:10.37,2013-09-09 21:45:00,
2013-09-09 14:50:00,95.7,45.4,29.51,East,86,1.0,5.0,18,0.00,CLR,,0.00,WeatherDisplay:10.37,2013-09-09 21:50:00,
2013-09-09 14:55:00,96.1,45.7,29.50,East,86,0.0,4.0,18,0.00,CLR,,0.00,WeatherDisplay:10.37,2013-09-09 21:55:00,
2013-09-09 15:00:00,96.6,44.6,29.50,ESE,103,3.0,9.0,17,0.00,CLR,,0.00,WeatherDisplay:10.37,2013-09-09 22:00:00,
2013-09-09 15:10:00,96.4,46.0,29.50,ESE,105,5.0,12.0,18,0.00,CLR,,0.00,WeatherDisplay:10.37,2013-09-09 22:10:00,
2013-09-09 15:15:00,95.9,48.4,29.49,East,97,5.0,10.0,20,0.00,CLR,,0.00,WeatherDisplay:10.37,2013-09-09 22:15:00,
2013-09-09 15:20:00,96.3,45.9,29.49,East,94,2.0,5.0,18,0.00,CLR,,0.00,WeatherDisplay:10.37,2013-09-09 22:20:00,
2013-09-09 15:25:00,95.6,45.3,29.49,ENE,76,3.0,10.0,18,0.00,CLR,,0.00,WeatherDisplay:10.37,2013-09-09 22:25:00,
2013-09-09 15:30:00,95.6,43.9,29.49,ENE,68,0.0,3.0,17,0.00,CLR,,0.00,WeatherDisplay:10.37,2013-09-09 22:30:00,
2013-09-09 15:40:00,95.9,42.5,29.49,ENE,68,2.0,7.0,16,0.00,CLR,,0.00,WeatherDisplay:10.37,2013-09-09 22:40:00,
2013-09-09 15:45:00,96.2,42.7,29.49,ENE,74,0.0,5.0,16,0.00,CLR,,0.00,WeatherDisplay:10.37,2013-09-09 22:45:00,
2013-09-09 15:50:00,97.1,43.4,29.48,ENE,74,2.0,5.0,16,0.00,CLR,,0.00,WeatherDisplay:10.37,2013-09-09 22:50:00,
2013-09-09 15:55:00,97.1,43.4,29.48,ENE,74,2.0,5.0,16,0.00,CLR,,0.00,WeatherDisplay:10.37,2013-09-09 22:55:00,
2013-09-09 16:00:00,97.3,45.2,29.48,East,88,6.0,9.0,17,0.00,CLR,,0.00,WeatherDisplay:10.37,2013-09-09 23:00:00,
2013-09-09 16:10:00,96.8,44.8,29.47,ESE,107,2.0,7.0,17,0.00,CLR,,0.00,WeatherDisplay:10.37,2013-09-09 23:10:00,
2013-09-09 16:15:00,97.3,45.2,29.47,ESE,103,3.0,7.0,17,0.00,CLR,,0.00,WeatherDisplay:10.37,2013-09-09 23:15:00,
2013-09-09 16:20:00,97.1,43.5,29.47,ESE,103,7.0,12.0,16,0.00,CLR,,0.00,WeatherDisplay:10.37,2013-09-09 23:20:00,
2013-09-09 16:25:00,96.2,44.3,29.47,East,98,7.0,10.0,17,0.00,CLR,,0.00,WeatherDisplay:10.37,2013-09-09 23:25:00,
2013-09-09 16:30:00,95.6,43.8,29.48,East,93,7.0,12.0,17,0.00,CLR,,0.00,WeatherDisplay:10.37,2013-09-09 23:30:00,
2013-09-09 16:40:00,95.6,43.8,29.48,East,84,8.0,13.0,17,0.00,CLR,,0.00,WeatherDisplay:10.37,2013-09-09 23:40:00,
2013-09-09 16:45:00,95.6,43.8,29.48,ESE,103,3.0,8.0,17,0.00,CLR,,0.00,WeatherDisplay:10.37,2013-09-09 23:45:00,
2013-09-09 16:50:00,96.1,42.6,29.48,ESE,111,6.0,9.0,16,0.00,CLR,,0.00,WeatherDisplay:10.37,2013-09-09 23:50:00,
2013-09-09 17:00:00,95.6,42.3,29.47,East,84,6.0,8.0,16,0.00,CLR,,0.00,WeatherDisplay:10.37,2013-09-10 00:00:00,
2013-09-09 17:10:00,95.4,43.7,29.47,East,87,6.0,12.0,17,0.00,CLR,,0.00,WeatherDisplay:10.37,2013-09-10 00:10:00,
2013-09-09 17:20:00,94.5,42.9,29.48,East,97,6.0,12.0,17,0.00,CLR,,0.00,WeatherDisplay:10.37,2013-09-10 00:20:00,
2013-09-09 17:25:00,94.3,42.8,29.48,East,91,5.0,7.0,17,0.00,CLR,,0.00,WeatherDisplay:10.37,2013-09-10 00:25:00,
2013-09-09 17:30:00,94.3,42.8,29.48,East,94,3.0,7.0,17,0.00,CLR,,0.00,WeatherDisplay:10.37,2013-09-10 00:30:00,
2013-09-09 17:40:00,94.3,42.8,29.47,East,79,7.0,10.0,17,0.00,CLR,,0.00,WeatherDisplay:10.37,2013-09-10 00:40:00,
2013-09-09 17:45:00,94.5,41.4,29.47,ESE,103,6.0,20.0,16,0.00,CLR,,0.00,WeatherDisplay:10.37,2013-09-10 00:45:00,
2013-09-09 17:50:00,94.6,43.1,29.47,SW,228,6.0,20.0,17,0.00,CLR,,0.00,WeatherDisplay:10.37,2013-09-10 00:50:00,
2013-09-09 18:00:00,94.3,39.5,29.48,West,267,8.0,10.0,15,0.00,CLR,,0.00,WeatherDisplay:10.37,2013-09-10 01:00:00,
2013-09-09 18:10:00,93.8,39.2,29.48,West,269,9.0,12.0,15,0.00,CLR,,0.00,WeatherDisplay:10.37,2013-09-10 01:10:00,
2013-09-09 18:15:00,93.6,39.0,29.48,West,268,7.0,15.0,15,0.00,CLR,,0.00,WeatherDisplay:10.37,2013-09-10 01:15:00,
2013-09-09 18:20:00,92.9,38.4,29.48,West,262,9.0,16.0,15,0.00,CLR,,0.00,WeatherDisplay:10.37,2013-09-10 01:20:00,
2013-09-09 18:25:00,92.4,39.7,29.48,WSW,258,12.0,17.0,16,0.00,CLR,,0.00,WeatherDisplay:10.37,2013-09-10 01:25:00,
2013-09-09 18:30:00,92.1,39.5,29.48,WSW,258,10.0,16.0,16,0.00,CLR,,0.00,WeatherDisplay:10.37,2013-09-10 01:30:00,
2013-09-09 18:40:00,91.8,39.2,29.48,WSW,255,6.0,12.0,16,0.00,CLR,,0.00,WeatherDisplay:10.37,2013-09-10 01:40:00,
2013-09-09 18:45:00,91.6,39.1,29.48,WSW,244,8.0,12.0,16,0.00,CLR,,0.00,WeatherDisplay:10.37,2013-09-10 01:45:00,
2013-09-09 18:50:00,91.4,38.9,29.49,WSW,240,6.0,10.0,16,0.00,CLR,,0.00,WeatherDisplay:10.37,2013-09-10 01:50:00,
2013-09-09 19:00:00,90.7,39.9,29.48,SW,222,7.0,10.0,17,0.00,CLR,,0.00,WeatherDisplay:10.37,2013-09-10 02:00:00,
2013-09-09 19:10:00,90.3,38.0,29.48,SW,220,12.0,14.0,16,0.00,CLR,,0.00,WeatherDisplay:10.37,2013-09-10 02:10:00,
2013-09-09 19:15:00,90.3,39.6,29.48,SW,227,10.0,13.0,17,0.00,CLR,,0.00,WeatherDisplay:10.37,2013-09-10 02:15:00,
2013-09-09 19:20:00,90.1,39.4,29.48,SW,231,10.0,14.0,17,0.00,CLR,,0.00,WeatherDisplay:10.37,2013-09-10 02:20:00,
2013-09-09 19:25:00,89.9,39.2,29.48,WSW,242,7.0,13.0,17,0.00,CLR,,0.00,WeatherDisplay:10.37,2013-09-10 02:25:00,
2013-09-09 19:30:00,89.3,40.2,29.48,WSW,252,7.0,10.0,18,0.00,CLR,,0.00,WeatherDisplay:10.37,2013-09-10 02:30:00,
2013-09-09 19:40:00,88.8,39.8,29.48,WSW,243,8.0,12.0,18,0.00,CLR,,0.00,WeatherDisplay:10.37,2013-09-10 02:40:00,
2013-09-09 19:50:00,88.4,39.5,29.48,WSW,246,7.0,10.0,18,0.00,CLR,,0.00,WeatherDisplay:10.37,2013-09-10 02:50:00,
2013-09-09 20:00:00,87.8,39.0,29.49,WSW,243,6.0,7.0,18,0.00,CLR,,0.00,WeatherDisplay:10.37,2013-09-10 03:00:00,
2013-09-09 20:10:00,87.0,38.4,29.49,SW,234,3.0,5.0,18,0.00,CLR,,0.00,WeatherDisplay:10.37,2013-09-10 03:10:00,
2013-09-09 20:15:00,86.7,36.7,29.49,SW,234,5.0,7.0,17,0.00,CLR,,0.00,WeatherDisplay:10.37,2013-09-10 03:15:00,
2013-09-09 20:20:00,86.7,38.1,29.49,SW,229,5.0,7.0,18,0.00,CLR,,0.00,WeatherDisplay:10.37,2013-09-10 03:20:00,
2013-09-09 20:30:00,86.3,37.8,29.49,SW,225,2.0,6.0,18,0.00,CLR,,0.00,WeatherDisplay:10.37,2013-09-10 03:30:00,
2013-09-09 20:40:00,85.5,37.1,29.48,SW,224,3.0,7.0,18,0.00,CLR,,0.00,WeatherDisplay:10.37,2013-09-10 03:40:00,
2013-09-09 20:45:00,85.3,37.0,29.48,SW,223,2.0,5.0,18,0.00,CLR,,0.00,WeatherDisplay:10.37,2013-09-10 03:45:00,
2013-09-09 20:50:00,85.1,36.8,29.49,SW,222,2.0,5.0,18,0.00,CLR,,0.00,WeatherDisplay:10.37,2013-09-10 03:50:00,
2013-09-09 20:55:00,85.1,36.8,29.49,SW,220,1.0,6.0,18,0.00,CLR,,0.00,WeatherDisplay:10.37,2013-09-10 03:55:00,
2013-09-09 21:00:00,84.9,38.0,29.49,SW,218,1.0,4.0,19,0.00,CLR,,0.00,WeatherDisplay:10.37,2013-09-10 04:00:00,
2013-09-09 21:05:00,84.5,37.7,29.49,SW,218,2.0,4.0,19,0.00,CLR,,0.00,WeatherDisplay:10.37,2013-09-10 04:05:00,
2013-09-09 21:10:00,84.3,37.5,29.49,SW,218,1.0,4.0,19,0.00,CLR,,0.00,WeatherDisplay:10.37,2013-09-10 04:10:00,
2013-09-09 21:15:00,84.2,37.5,29.49,SSW,213,6.0,10.0,19,0.00,CLR,,0.00,WeatherDisplay:10.37,2013-09-10 04:15:00,
2013-09-09 21:20:00,84.7,37.9,29.49,SSW,209,5.0,10.0,19,0.00,CLR,,0.00,WeatherDisplay:10.37,2013-09-10 04:20:00,
2013-09-09 21:30:00,84.5,37.7,29.48,SSW,206,3.0,9.0,19,0.00,CLR,,0.00,WeatherDisplay:10.37,2013-09-10 04:30:00,
2013-09-09 21:40:00,84.7,37.9,29.48,SSW,203,3.0,10.0,19,0.00,CLR,,0.00,WeatherDisplay:10.37,2013-09-10 04:40:00,
2013-09-09 21:45:00,84.5,37.7,29.48,SSW,202,3.0,6.0,19,0.00,CLR,,0.00,WeatherDisplay:10.37,2013-09-10 04:45:00,
2013-09-09 21:50:00,84.1,37.4,29.48,SSW,202,2.0,5.0,19,0.00,CLR,,0.00,WeatherDisplay:10.37,2013-09-10 04:50:00,
2013-09-09 22:00:00,83.6,38.3,29.48,SSW,202,1.0,3.0,20,0.00,CLR,,0.00,WeatherDisplay:10.37,2013-09-10 05:00:00,
2013-09-09 22:05:00,83.2,37.9,29.49,SSW,202,0.0,1.0,20,0.00,CLR,,0.00,WeatherDisplay:10.37,2013-09-10 05:05:00,
2013-09-09 22:10:00,82.8,37.6,29.49,SSW,202,0.0,0.0,20,0.00,CLR,,0.00,WeatherDisplay:10.37,2013-09-10 05:10:00,
2013-09-09 22:15:00,82.2,39.5,29.49,SSW,202,0.0,2.0,22,0.00,CLR,,0.00,WeatherDisplay:10.37,2013-09-10 05:15:00,
2013-09-09 22:20:00,81.6,39.1,29.49,SSW,202,0.0,0.0,22,0.00,CLR,,0.00,WeatherDisplay:10.37,2013-09-10 05:20:00,
2013-09-09 22:25:00,81.1,38.6,29.49,SSW,202,0.0,0.0,22,0.00,CLR,,0.00,WeatherDisplay:10.37,2013-09-10 05:25:00,
2013-09-09 22:30:00,80.9,38.5,29.48,SSW,202,0.0,2.0,22,0.00,CLR,,0.00,WeatherDisplay:10.37,2013-09-10 05:30:00,
2013-09-09 22:35:00,80.7,39.4,29.48,SSW,202,0.0,1.0,23,0.00,CLR,,0.00,WeatherDisplay:10.37,2013-09-10 05:35:00,
2013-09-09 22:40:00,80.3,39.1,29.48,SSW,202,0.0,1.0,23,0.00,CLR,,0.00,WeatherDisplay:10.37,2013-09-10 05:40:00,
2013-09-09 22:45:00,80.1,38.9,29.48,SSW,202,2.0,3.0,23,0.00,CLR,,0.00,WeatherDisplay:10.37,2013-09-10 05:45:00,
2013-09-09 22:50:00,80.1,38.9,29.48,SSW,202,0.0,3.0,23,0.00,CLR,,0.00,WeatherDisplay:10.37,2013-09-10 05:50:00,
2013-09-09 22:55:00,79.9,39.9,29.48,SSW,202,1.0,3.0,24,0.00,CLR,,0.00,WeatherDisplay:10.37,2013-09-10 05:55:00,
2013-09-09 23:00:00,79.6,38.6,29.48,SSW,202,2.0,5.0,23,0.00,CLR,,0.00,WeatherDisplay:10.37,2013-09-10 06:00:00,
2013-09-09 23:10:00,79.2,38.2,29.49,SSW,202,0.0,2.0,23,0.00,CLR,,0.00,WeatherDisplay:10.37,2013-09-10 06:10:00,
2013-09-09 23:20:00,78.6,38.8,29.49,SSW,202,0.0,0.0,24,0.00,CLR,,0.00,WeatherDisplay:10.37,2013-09-10 06:20:00,
2013-09-09 23:25:00,78.5,37.6,29.49,SSW,202,0.0,0.0,23,0.00,CLR,,0.00,WeatherDisplay:10.37,2013-09-10 06:25:00,
2013-09-09 23:30:00,78.0,37.2,29.49,SSW,202,0.0,0.0,23,0.00,CLR,,0.00,WeatherDisplay:10.37,2013-09-10 06:30:00,
2013-09-09 23:40:00,77.2,37.6,29.50,SSW,202,0.0,0.0,24,0.00,CLR,,0.00,WeatherDisplay:10.37,2013-09-10 06:40:00,
2013-09-09 23:50:00,76.3,37.9,29.50,SSW,202,0.0,2.0,25,0.00,CLR,,0.00,WeatherDisplay:10.37,2013-09-10 06:50:00,